When you browse on this site, cookies collect data to enhance your experience and personalize the content and advertising you see.
Visit our Privacy Policy to learn more. By continuing to use the site, you agree to this use of cookies and data.
  • în România
  • Lista ţărilor
  • Pe 7 zile
  • Temperatura apei
  • Meteo pe hartă
  • Widget-uri
  • user-avatar
    Intrare

    Meteo pe oră la Iaşi

    Astăzi, 26 Mai, Marţi

    Timp Temperatura Precipitaţii Vânt Presiune Umiditate
    00:00 +9°C° 0 mm 2 m/s 757 mmHg 89%
    01:00 +9°C° 0 mm 2 m/s 757 mmHg 91%
    02:00 +8°C° 0 mm 2 m/s 757 mmHg 93%
    03:00 +8°C° 0 mm 2 m/s 757 mmHg 93%
    04:00 +8°C° 0 mm 2 m/s 757 mmHg 94%
    05:00 +8°C° 0 mm 2 m/s 757 mmHg 95%
    06:00 +9°C° 0 mm 3 m/s 757 mmHg 90%
    07:00 +11°C° 0 mm 4 m/s 757 mmHg 85%
    08:00 +12°C° 0 mm 4 m/s 757 mmHg 79%
    09:00 +12°C° 0.1 mm 5 m/s 757 mmHg 78%
    10:00 +13°C° 0.1 mm 6 m/s 757 mmHg 76%
    11:00 +13°C° 0.1 mm 6 m/s 757 mmHg 75%
    12:00 +14°C° 0.1 mm 6 m/s 756 mmHg 72%
    13:00 +15°C° 0.1 mm 6 m/s 756 mmHg 69%
    14:00 +16°C° 0.1 mm 6 m/s 756 mmHg 67%
    15:00 +16°C° 0.5 mm 6 m/s 756 mmHg 68%
    16:00 +16°C° 0.5 mm 6 m/s 756 mmHg 70%
    17:00 +16°C° 0.5 mm 6 m/s 756 mmHg 71%
    18:00 +14°C° 0.6 mm 5 m/s 756 mmHg 77%
    19:00 +13°C° 0.6 mm 5 m/s 756 mmHg 83%
    20:00 +12°C° 0.6 mm 4 m/s 756 mmHg 88%
    21:00 +11°C° 0.2 mm 4 m/s 756 mmHg 90%
    22:00 +11°C° 0.2 mm 4 m/s 757 mmHg 92%
    23:00 +11°C° 0.2 mm 4 m/s 757 mmHg 94%

    Mâine, 27 Mai, Miercuri

    Timp Temperatura Precipitaţii Vânt Presiune Umiditate
    00:00 +10°C° 0.3 mm 4 m/s 757 mmHg 95%
    01:00 +10°C° 0.3 mm 4 m/s 757 mmHg 95%
    02:00 +10°C° 0.3 mm 4 m/s 757 mmHg 96%
    03:00 +10°C° 0.5 mm 3 m/s 757 mmHg 96%
    04:00 +10°C° 0.5 mm 3 m/s 757 mmHg 96%
    05:00 +10°C° 0.5 mm 3 m/s 757 mmHg 96%
    06:00 +11°C° 0.3 mm 3 m/s 757 mmHg 95%
    07:00 +12°C° 0.3 mm 2 m/s 757 mmHg 93%
    08:00 +12°C° 0.3 mm 2 m/s 758 mmHg 91%
    09:00 +14°C° 0.3 mm 2 m/s 758 mmHg 85%
    10:00 +15°C° 0.3 mm 2 m/s 758 mmHg 80%
    11:00 +16°C° 0.3 mm 2 m/s 758 mmHg 74%
    12:00 +17°C° 0.6 mm 3 m/s 757 mmHg 71%
    13:00 +17°C° 0.6 mm 3 m/s 757 mmHg 69%
    14:00 +18°C° 0.6 mm 4 m/s 757 mmHg 66%
    15:00 +18°C° 0.8 mm 4 m/s 756 mmHg 68%
    16:00 +18°C° 0.8 mm 4 m/s 756 mmHg 69%
    17:00 +18°C° 0.8 mm 4 m/s 756 mmHg 71%
    18:00 +15°C° 0.4 mm 4 m/s 756 mmHg 76%
    19:00 +14°C° 0.4 mm 3 m/s 756 mmHg 82%
    20:00 +13°C° 0.4 mm 2 m/s 756 mmHg 87%
    21:00 +13°C° 0.1 mm 2 m/s 756 mmHg 89%
    22:00 +12°C° 0.1 mm 2 m/s 756 mmHg 91%
    23:00 +10°C° 0.1 mm 2 m/s 756 mmHg 93%

    Poimâine, 28 Mai, Joi

    Timp Temperatura Precipitaţii Vânt Presiune Umiditate
    00:00 +10°C° 0.1 mm 2 m/s 756 mmHg 94%
    01:00 +10°C° 0.1 mm 2 m/s 756 mmHg 95%
    02:00 +9°C° 0.1 mm 2 m/s 756 mmHg 95%
    03:00 +9°C° 0 mm 2 m/s 756 mmHg 95%
    04:00 +9°C° 0 mm 2 m/s 755 mmHg 96%
    05:00 +9°C° 0 mm 2 m/s 755 mmHg 96%
    06:00 +11°C° 0 mm 3 m/s 755 mmHg 91%
    07:00 +12°C° 0 mm 4 m/s 755 mmHg 86%
    08:00 +14°C° 0 mm 5 m/s 755 mmHg 81%
    09:00 +15°C° 0.4 mm 5 m/s 755 mmHg 76%
    10:00 +16°C° 0.4 mm 5 m/s 754 mmHg 71%
    11:00 +19°C° 0.4 mm 5 m/s 754 mmHg 66%
    12:00 +19°C° 0.5 mm 6 m/s 753 mmHg 64%
    13:00 +20°C° 0.5 mm 6 m/s 753 mmHg 62%
    14:00 +20°C° 0.5 mm 6 m/s 752 mmHg 60%
    15:00 +20°C° 0.1 mm 6 m/s 752 mmHg 60%
    16:00 +20°C° 0.1 mm 5 m/s 752 mmHg 60%
    17:00 +20°C° 0.1 mm 5 m/s 752 mmHg 60%
    18:00 +17°C° 0.3 mm 5 m/s 752 mmHg 67%
    19:00 +17°C° 0.3 mm 4 m/s 752 mmHg 74%
    20:00 +14°C° 0.3 mm 4 m/s 752 mmHg 81%
    21:00 +13°C° 0.1 mm 4 m/s 752 mmHg 83%
    22:00 +13°C° 0.1 mm 4 m/s 753 mmHg 86%
    23:00 +12°C° 0.1 mm 4 m/s 753 mmHg 88%

    29 Mai, Vineri

    Timp Temperatura Precipitaţii Vânt Presiune Umiditate
    00:00 +12°C° 0 mm 4 m/s 753 mmHg 89%
    01:00 +11°C° 0 mm 4 m/s 753 mmHg 90%
    02:00 +11°C° 0 mm 4 m/s 752 mmHg 91%
    03:00 +11°C° 0 mm 4 m/s 753 mmHg 91%
    04:00 +10°C° 0 mm 4 m/s 753 mmHg 92%
    05:00 +10°C° 0 mm 4 m/s 753 mmHg 93%
    06:00 +12°C° 0 mm 5 m/s 753 mmHg 88%
    07:00 +13°C° 0 mm 5 m/s 753 mmHg 84%
    08:00 +14°C° 0 mm 6 m/s 753 mmHg 80%
    09:00 +16°C° 0.2 mm 6 m/s 753 mmHg 75%
    10:00 +17°C° 0.2 mm 6 m/s 752 mmHg 70%
    11:00 +19°C° 0.2 mm 6 m/s 752 mmHg 65%
    12:00 +20°C° 0.4 mm 6 m/s 752 mmHg 63%
    13:00 +20°C° 0.4 mm 6 m/s 752 mmHg 62%
    14:00 +21°C° 0.4 mm 5 m/s 751 mmHg 60%
    15:00 +20°C° 0.4 mm 5 m/s 751 mmHg 62%
    16:00 +20°C° 0.4 mm 5 m/s 751 mmHg 64%
    17:00 +19°C° 0.4 mm 5 m/s 751 mmHg 66%
    18:00 +17°C° 0.4 mm 5 m/s 752 mmHg 73%
    19:00 +15°C° 0.4 mm 4 m/s 752 mmHg 79%
    20:00 +14°C° 0.4 mm 4 m/s 752 mmHg 86%
    21:00 +13°C° 0 mm 4 m/s 752 mmHg 88%
    22:00 +12°C° 0 mm 4 m/s 752 mmHg 90%
    23:00 +12°C° 0 mm 4 m/s 752 mmHg 92%

    30 Mai, Sâmbătă

    Timp Temperatura Precipitaţii Vânt Presiune Umiditate
    00:00 +11°C° 0 mm 4 m/s 752 mmHg 92%
    01:00 +11°C° 0 mm 4 m/s 752 mmHg 93%
    02:00 +10°C° 0 mm 4 m/s 752 mmHg 93%
    03:00 +10°C° 0 mm 4 m/s 752 mmHg 93%
    04:00 +10°C° 0 mm 4 m/s 752 mmHg 94%
    05:00 +10°C° 0 mm 4 m/s 752 mmHg 94%
    06:00 +10°C° 0 mm 5 m/s 752 mmHg 91%
    07:00 +12°C° 0 mm 5 m/s 752 mmHg 88%
    08:00 +13°C° 0 mm 5 m/s 752 mmHg 86%
    09:00 +15°C° 0.1 mm 6 m/s 752 mmHg 81%
    10:00 +16°C° 0.1 mm 6 m/s 752 mmHg 77%
    11:00 +17°C° 0.1 mm 6 m/s 752 mmHg 73%
    12:00 +19°C° 0.3 mm 6 m/s 752 mmHg 71%
    13:00 +20°C° 0.3 mm 6 m/s 752 mmHg 69%
    14:00 +20°C° 0.3 mm 6 m/s 751 mmHg 67%
    15:00 +20°C° 0.4 mm 6 m/s 751 mmHg 68%
    16:00 +20°C° 0.4 mm 6 m/s 751 mmHg 69%
    17:00 +20°C° 0.4 mm 6 m/s 751 mmHg 70%
    18:00 +17°C° 0.2 mm 5 m/s 751 mmHg 75%
    19:00 +17°C° 0.2 mm 4 m/s 751 mmHg 80%
    20:00 +14°C° 0.2 mm 4 m/s 751 mmHg 85%
    21:00 +14°C° 0 mm 3 m/s 751 mmHg 87%
    22:00 +13°C° 0 mm 3 m/s 752 mmHg 90%
    23:00 +12°C° 0 mm 3 m/s 752 mmHg 92%

    31 Mai, Duminică

    Timp Temperatura Precipitaţii Vânt Presiune Umiditate
    00:00 +12°C° 0 mm 3 m/s 752 mmHg 93%
    01:00 +11°C° 0 mm 3 m/s 751 mmHg 93%
    02:00 +11°C° 0 mm 3 m/s 751 mmHg 94%
    03:00 +11°C° 0 mm 3 m/s 751 mmHg 94%
    04:00 +11°C° 0 mm 4 m/s 751 mmHg 93%
    05:00 +11°C° 0 mm 4 m/s 751 mmHg 93%
    06:00 +12°C° 0 mm 4 m/s 751 mmHg 88%
    07:00 +14°C° 0 mm 5 m/s 751 mmHg 84%
    08:00 +15°C° 0 mm 6 m/s 752 mmHg 79%
    09:00 +17°C° 0 mm 6 m/s 751 mmHg 75%
    10:00 +19°C° 0 mm 6 m/s 751 mmHg 70%
    11:00 +20°C° 0 mm 7 m/s 751 mmHg 65%
    12:00 +21°C° 0.6 mm 7 m/s 751 mmHg 65%
    13:00 +21°C° 0.6 mm 6 m/s 751 mmHg 66%
    14:00 +21°C° 0.6 mm 6 m/s 750 mmHg 66%
    15:00 +21°C° 0.5 mm 6 m/s 750 mmHg 67%
    16:00 +20°C° 0.5 mm 6 m/s 750 mmHg 69%
    17:00 +20°C° 0.5 mm 5 m/s 750 mmHg 70%
    18:00 +17°C° 0 mm 5 m/s 751 mmHg 73%
    19:00 +17°C° 0 mm 4 m/s 751 mmHg 77%
    20:00 +14°C° 0 mm 4 m/s 751 mmHg 80%
    21:00 +14°C° 0 mm 4 m/s 751 mmHg 82%
    22:00 +13°C° 0 mm 4 m/s 752 mmHg 84%
    23:00 +13°C° 0 mm 4 m/s 752 mmHg 85%
    Arată mai mult